Location: Irma
(52.9170°N, 111.2330°W)
Time: 03:34:43
(UTC-06:00)

Cosmos 1633 Rocket - Visible Passes

Search period start: 17 September 2014 00:00
Search period end: 27 September 2014 00:00
Orbit: 608 x 627 km, 82.5° (Epoch: 17 September)

Date Brightness Start Highest point End Pass type
(mag) Time Alt. Az. Time Alt. Az. Time Alt. Az.
17 Sep 3.7 20:12:58 10° N 20:17:01 36° ENE 20:21:02 10° SE visible
17 Sep 4.9 21:50:59 10° NNW 21:54:46 29° W 21:58:31 10° SSW visible
18 Sep 3.1 20:29:39 10° N 20:33:59 59° ENE 20:38:16 10° SSE visible
18 Sep 5.7 22:08:23 10° NW 22:11:23 18° W 22:14:22 10° SW visible
19 Sep 3.1 20:46:29 10° NNW 20:50:51 82° W 20:55:12 10° S visible
19 Sep 6.1 22:26:36 10° WNW 22:27:55 11° W 22:29:13 10° W visible
20 Sep 4.0 21:03:26 10° NNW 21:07:38 48° W 21:11:49 10° SSW visible
21 Sep 5.0 21:20:34 10° NNW 21:24:20 29° W 21:28:06 10° SSW visible
22 Sep 3.1 19:59:13 10° N 20:03:33 60° ENE 20:07:51 10° SSE visible
22 Sep 5.8 21:37:58 10° NW 21:40:57 18° W 21:43:56 10° SW visible
23 Sep 3.1 20:16:03 10° NNW 20:20:25 82° W 20:24:46 10° S visible
23 Sep 6.3 21:56:10 10° WNW 21:57:29 11° W 21:58:47 10° W visible
24 Sep 4.1 20:33:00 10° NNW 20:37:12 48° W 20:41:23 10° SSW visible
25 Sep 5.1 20:50:07 10° NNW 20:53:54 29° W 20:57:40 10° SSW visible
26 Sep 6.0 21:07:31 10° NW 21:10:31 18° W 21:13:30 10° SW visible
